Location: Newark
(41.0400°S, 62.7845°W)
Time: 00:56:05
(UTC+00:00)

Tiros 1 despin weight - Visible Passes

Search period start: 07 December 2021 00:00
Search period end: 17 December 2021 00:00
Orbit: 593 x 641 km, 48.2° (Epoch: 05 December)

Date Brightness Start Highest point End Pass type
(mag) Time Alt. Az. Time Alt. Az. Time Alt. Az.
07 Dec ? 03:58:02 34° ESE 03:58:02 34° ESE 04:00:47 10° ESE visible
07 Dec ? 05:35:01 21° WSW 05:37:52 44° SSW 05:42:25 10° ESE visible
07 Dec ? 07:15:49 10° WSW 07:20:10 35° S 07:24:33 10° ESE visible
08 Dec ? 04:12:37 71° SSE 04:12:37 71° SSE 04:17:00 10° ESE visible
08 Dec ? 05:49:55 10° WSW 05:54:18 36° S 05:58:41 10° ESE visible
08 Dec ? 07:32:07 10° WSW 07:36:37 40° SSE 07:41:06 10° E visible
09 Dec ? 02:50:02 19° ESE 02:50:02 19° ESE 02:51:27 10° ESE visible
09 Dec ? 04:26:59 36° WSW 04:28:30 52° SSW 04:33:09 10° ESE visible
09 Dec ? 06:06:26 10° WSW 06:10:45 34° S 06:15:06 10° ESE visible
09 Dec ? 07:48:19 10° WSW 07:52:59 53° SSE 07:57:37 10° E visible
10 Dec ? 03:03:58 55° ESE 03:03:58 55° ESE 03:07:43 10° ESE visible
10 Dec ? 04:40:52 12° W 04:44:52 40° SSW 04:49:21 10° ESE visible
10 Dec ? 06:22:49 10° WSW 06:27:12 36° S 06:31:36 10° ESE visible
11 Dec ? 01:39:47 23° E 01:39:47 23° E 01:41:58 10° ESE visible
11 Dec ? 03:16:29 24° W 03:19:11 65° SSW 03:23:54 10° ESE visible
11 Dec ? 04:56:59 10° WSW 05:01:19 35° S 05:05:40 10° ESE visible
11 Dec ? 06:39:04 10° WSW 06:43:37 44° SSE 06:48:10 10° E visible
12 Dec ? 00:12:02 10° NE 00:13:02 11° NE 00:14:02 10° ENE visible
12 Dec ? 01:49:17 10° NW 01:53:48 57° NE 01:58:25 10° ESE visible
12 Dec ? 03:30:59 10° W 03:35:29 46° SSW 03:40:04 10° ESE visible
12 Dec ? 05:13:27 10° WSW 05:17:46 34° S 05:22:07 10° ESE visible
12 Dec ? 06:55:14 10° WSW 06:59:57 61° SSE 07:04:38 10° ENE visible
13 Dec ? 00:25:18 10° N 00:28:46 21° NE 00:32:18 10° E visible
13 Dec ? 02:05:16 10° WNW 02:09:54 85° SSW 02:14:38 10° ESE visible
13 Dec ? 03:47:32 10° WSW 03:51:53 37° S 03:56:18 10° ESE visible
13 Dec ? 05:29:47 10° WSW 05:34:13 38° S 05:38:40 10° E visible
13 Dec ? 07:11:24 10° WSW 07:16:10 87° NNW 07:20:53 10° ENE visible
14 Dec ? 00:40:23 10° NNW 00:44:39 40° NE 00:49:01 10° ESE visible
14 Dec ? 02:21:35 10° W 02:26:08 56° SSW 02:30:47 10° ESE visible
14 Dec ? 04:04:03 10° WSW 04:08:20 34° S 04:12:40 10° ESE visible
14 Dec ? 05:46:00 10° WSW 05:50:36 49° SSE 05:55:13 10° E visible
14 Dec ? 07:27:38 10° WSW 07:32:13 51° NW 07:36:48 10° NE visible
15 Dec ? 00:56:06 10° NW 01:00:40 72° NNE 01:05:20 10° ESE visible
15 Dec ? 02:38:04 10° W 02:42:29 41° SSW 02:46:57 10° ESE visible
15 Dec ? 04:20:28 10° WSW 04:24:48 35° S 04:29:10 10° ESE visible
15 Dec ? 06:02:08 10° WSW 06:06:53 72° SSE 06:11:36 10° ENE visible
15 Dec ? 07:44:08 10° W 07:48:10 28° NW 07:52:11 10° NNE visible
16 Dec ? 01:12:13 10° WNW 01:16:49 71° SSW 01:21:31 10° ESE visible
16 Dec ? 02:54:36 10° WSW 02:58:54 35° S 03:03:15 10° ESE visible
16 Dec ? 04:36:44 10° WSW 04:41:13 42° SSE 04:45:43 10° E visible
16 Dec ? 06:18:18 10° WSW 06:23:02 72° NNW 06:27:44 10° NE visible
